HF3P-11 Weather Reports


Display with metric or nautical units.
time (UTC)temp
F
wind
direction
speed
MPH
gust
MPH
rain 1hr
in
rain 24hr
in
rain mn
in
humidity
%
barometer
mb
20200809142053 82 210 5.0 11.0 0.00 0.00 0.00 51 1017.8
20200809141754 82 205 4.0 11.0 0.00 0.00 0.00 51 1017.7
20200809141450 83 201 6.0 11.0 0.00 0.00 0.00 51 1017.7
20200809141151 83 203 8.0 11.0 0.00 0.00 0.00 53 1017.6
20200809140850 83 272 5.0 8.0 0.00 0.00 0.00 53 1017.6
20200809140555 83 310 2.0 4.0 0.00 0.00 0.00 52 1017.6
20200809140253 83 308 2.0 4.0 0.00 0.00 0.00 52 1017.7
20200809135952 83 309 2.0 4.0 0.00 0.00 0.00 52 1017.8
20200809135650 84 329 2.0 4.0 0.00 0.00 0.00 52 1017.8
20200809135354 84 9 2.0 6.0 0.00 0.00 0.00 51 1017.8
20200809135053 84 47 2.0 6.0 0.00 0.00 0.00 50 1017.8
20200809134751 84 70 3.0 8.0 0.00 0.00 0.00 48 1017.8
20200809134450 84 69 3.0 8.0 0.00 0.00 0.00 48 1017.7
20200809134151 84 63 3.0 8.0 0.00 0.00 0.00 47 1017.8
20200809133854 84 39 7.0 8.0 0.00 0.00 0.00 47 1017.8
20200809133550 84 34 2.0 8.0 0.00 0.00 0.00 50 1017.8
20200809133254 85 36 2.0 11.0 0.00 0.00 0.00 50 1017.7
20200809132954 85 37 5.0 11.0 0.00 0.00 0.00 50 1017.8
20200809132656 85 46 4.0 11.0 0.00 0.00 0.00 46 1017.8
20200809132353 86 42 8.0 11.0 0.00 0.00 0.00 45 1017.9
20200809132052 86 59 6.0 8.0 0.00 0.00 0.00 44 1017.8
20200809131751 86 56 4.0 8.0 0.00 0.00 0.00 43 1017.7
20200809131454 86 47 7.0 8.0 0.00 0.00 0.00 41 1017.7
20200809131150 87 64 5.0 8.0 0.00 0.00 0.00 41 1017.7
20200809130858 87 58 4.0 8.0 0.00 0.00 0.00 40 1017.7
20200809130551 87 70 4.0 11.0 0.00 0.00 0.00 42 1017.8
20200809130259 87 57 2.0 11.0 0.00 0.00 0.00 41 1017.8
20200809125952 87 62 4.0 11.0 0.00 0.00 0.00 40 1017.9
20200809125651 88 61 5.0 10.0 0.00 0.00 0.00 41 1017.8
20200809125351 87 69 3.0 11.0 0.00 0.00 0.00 41 1017.9
20200809125052 87 67 5.0 11.0 0.00 0.00 0.00 41 1018.0
20200809124750 87 62 5.0 11.0 0.00 0.00 0.00 41 1018.0
20200809124452 87 48 8.0 11.0 0.00 0.00 0.00 41 1018.0
20200809124151 87 46 9.0 11.0 0.00 0.00 0.00 41 1017.9
20200809123854 88 43 8.0 12.0 0.00 0.00 0.00 40 1018.0
20200809123550 88 50 8.0 12.0 0.00 0.00 0.00 40 1017.9
20200809123252 89 43 7.0 12.0 0.00 0.00 0.00 40 1018.0
20200809122954 89 43 9.0 11.0 0.00 0.00 0.00 39 1018.0
20200809122652 89 44 9.0 11.0 0.00 0.00 0.00 39 1017.9
20200809122352 89 77 6.0 7.0 0.00 0.00 0.00 38 1018.1
20200809122051 89 104 4.0 7.0 0.00 0.00 0.00 37 1018.0
20200809121753 90 122 4.0 9.0 0.00 0.00 0.00 35 1018.1
20200809121455 90 133 3.0 9.0 0.00 0.00 0.00 33 1018.0
20200809121151 89 155 5.0 9.0 0.00 0.00 0.00 37 1018.1
20200809120858 89 168 8.0 9.0 0.00 0.00 0.00 41 1018.1
20200809120550 89 174 7.0 8.0 0.00 0.00 0.00 41 1018.2
20200809120254 89 183 7.0 9.0 0.00 0.00 0.00 41 1018.1
20200809115950 89 170 7.0 11.0 0.00 0.00 0.00 41 1018.3
20200809115653 89 163 3.0 11.0 0.00 0.00 0.00 41 1018.2
20200809115355 89 129 6.0 11.0 0.00 0.00 0.00 42 1018.3
20200809115052 89 91 9.0 11.0 0.00 0.00 0.00 41 1018.3
20200809114754 89 99 3.0 8.0 0.00 0.00 0.00 40 1018.4
20200809114452 89 123 5.0 8.0 0.00 0.00 0.00 40 1018.4
20200809114153 88 139 7.0 8.0 0.00 0.00 0.00 43 1018.4
20200809113851 88 106 4.0 8.0 0.00 0.00 0.00 42 1018.4
20200809113550 88 53 2.0 8.0 0.00 0.00 0.00 41 1018.4
20200809113255 88 54 6.0 8.0 0.00 0.00 0.00 40 1018.5
20200809112953 88 28 5.0 7.0 0.00 0.00 0.00 40 1018.6
20200809112708 87 18 3.0 7.0 0.00 0.00 0.00 41 1018.6
20200809112355 87 18 2.0 8.0 0.00 0.00 0.00 41 1018.5
20200809112051 87 22 2.0 8.0 0.00 0.00 0.00 41 1018.5
20200809111751 87 38 4.0 8.0 0.00 0.00 0.00 41 1018.7
20200809111452 87 44 4.0 5.0 0.00 0.00 0.00 41 1018.6
20200809111151 87 31 1.0 8.0 0.00 0.00 0.00 42 1018.6
20200809110854 87 17 2.0 8.0 0.00 0.00 0.00 41 1018.7
20200809110551 87 26 2.0 8.0 0.00 0.00 0.00 41 1018.7
20200809110255 87 5 4.0 6.0 0.00 0.00 0.00 41 1018.8
20200809105950 87 10 2.0 8.0 0.00 0.00 0.00 42 1018.7
20200809105651 86 7 2.0 8.0 0.00 0.00 0.00 42 1018.8
20200809105351 86 15 4.0 8.0 0.00 0.00 0.00 41 1018.9
20200809105052 86 1 7.0 8.0 0.00 0.00 0.00 42 1018.9
20200809104750 86 349 5.0 7.0 0.00 0.00 0.00 41 1018.9
20200809104452 86 8 3.0 5.0 0.00 0.00 0.00 41 1018.8
20200809104150 86 26 2.0 5.0 0.00 0.00 0.00 41 1018.9
20200809103855 86 35 2.0 5.0 0.00 0.00 0.00 42 1019.0
20200809103551 86 9 4.0 5.0 0.00 0.00 0.00 41 1019.1
20200809103252 86 32 3.0 4.0 0.00 0.00 0.00 41 1019.0
20200809102951 86 57 2.0 6.0 0.00 0.00 0.00 41 1019.0
20200809102652 86 88 0.0 8.0 0.00 0.00 0.00 41 1019.2
20200809102350 86 94 4.0 8.0 0.00 0.00 0.00 43 1019.2
20200809102052 86 115 4.0 8.0 0.00 0.00 0.00 42 1019.1
20200809101750 86 128 4.0 8.0 0.00 0.00 0.00 44 1019.2
20200809101452 86 121 4.0 8.0 0.00 0.00 0.00 42 1019.2
20200809101152 86 112 4.0 8.0 0.00 0.00 0.00 43 1019.2
20200809100852 86 91 2.0 4.0 0.00 0.00 0.00 41 1019.2
20200809100551 85 85 2.0 5.0 0.00 0.00 0.00 44 1019.2
20200809100252 85 80 2.0 8.0 0.00 0.00 0.00 44 1019.2
20200809095951 85 75 2.0 8.0 0.00 0.00 0.00 44 1019.3
20200809095651 85 85 4.0 8.0 0.00 0.00 0.00 43 1019.4
20200809095351 85 71 4.0 8.0 0.00 0.00 0.00 44 1019.3
20200809095055 85 68 2.0 7.0 0.00 0.00 0.00 44 1019.4
20200809094753 85 43 4.0 7.0 0.00 0.00 0.00 43 1019.5
20200809094451 85 20 4.0 7.0 0.00 0.00 0.00 44 1019.5
20200809094153 85 5 3.0 7.0 0.00 0.00 0.00 43 1019.5
20200809093857 85 7 3.0 7.0 0.00 0.00 0.00 43 1019.4
20200809093551 85 27 4.0 7.0 0.00 0.00 0.00 44 1019.4
20200809093254 85 90 3.0 7.0 0.00 0.00 0.00 43 1019.5
20200809092953 85 145 2.0 7.0 0.00 0.00 0.00 46 1019.4
20200809092656 85 159 4.0 8.0 0.00 0.00 0.00 47 1019.6
20200809092353 85 166 2.0 8.0 0.00 0.00 0.00 48 1019.5
20200809092052 85 169 4.0 8.0 0.00 0.00 0.00 48 1019.4
20200809091754 85 126 7.0 8.0 0.00 0.00 0.00 48 1019.4
20200809091455 85 104 2.0 5.0 0.00 0.00 0.00 47 1019.4
20200809091151 85 106 1.0 6.0 0.00 0.00 0.00 46 1019.4
20200809090851 85 109 4.0 6.0 0.00 0.00 0.00 45 1019.5
20200809090551 84 133 3.0 6.0 0.00 0.00 0.00 48 1019.5
20200809090252 84 152 4.0 6.0 0.00 0.00 0.00 48 1019.5
20200809085954 84 188 2.0 3.0 0.00 0.00 0.00 49 1019.4
20200809085653 84 146 1.0 4.0 0.00 0.00 0.00 50 1019.4
20200809085351 84 58 0.0 4.0 0.00 0.00 0.00 46 1019.5
20200809085052 84 54 1.0 4.0 0.00 0.00 0.00 46 1019.4
20200809084751 84 67 2.0 6.0 0.00 0.00 0.00 46 1019.4
20200809084455 84 74 1.0 6.0 0.00 0.00 0.00 46 1019.4
20200809084154 84 72 2.0 6.0 0.00 0.00 0.00 46 1019.5
20200809083851 84 84 4.0 6.0 0.00 0.00 0.00 45 1019.5
20200809083551 83 84 2.0 4.0 0.00 0.00 0.00 48 1019.4
20200809083255 83 115 1.0 4.0 0.00 0.00 0.00 49 1019.5
20200809082954 83 135 2.0 4.0 0.00 0.00 0.00 48 1019.5
20200809082656 83 136 1.0 4.0 0.00 0.00 0.00 51 1019.5
20200809082350 83 29 3.0 4.0 0.00 0.00 0.00 50 1019.6
20200809082052 83 36 0.0 4.0 0.00 0.00 0.00 50 1019.5
20200809081753 83 77 2.0 4.0 0.00 0.00 0.00 50 1019.6
20200809081453 83 139 2.0 4.0 0.00 0.00 0.00 51 1019.4
20200809081151 83 177 2.0 4.0 0.00 0.00 0.00 52 1019.4
20200809080854 82 187 1.0 2.0 0.00 0.00 0.00 50 1019.4
20200809080552 82 191 2.0 2.0 0.00 0.00 0.00 52 1019.5
20200809080252 82 188 2.0 2.0 0.00 0.00 0.00 52 1019.4
20200809075950 82 150 2.0 2.0 0.00 0.00 0.00 52 1019.4
20200809075651 82 114 0.0 3.0 0.00 0.00 0.00 51 1019.5
20200809075354 82 107 1.0 3.0 0.00 0.00 0.00 50 1019.6
20200809075052 82 103 0.0 4.0 0.00 0.00 0.00 53 1019.4
20200809074754 82 115 2.0 4.0 0.00 0.00 0.00 53 1019.4
20200809074455 81 136 2.0 4.0 0.00 0.00 0.00 52 1019.5
20200809074151 81 151 2.0 4.0 0.00 0.00 0.00 54 1019.6
20200809073853 81 152 1.0 4.0 0.00 0.00 0.00 54 1019.5
20200809073551 81 149 2.0 4.0 0.00 0.00 0.00 56 1019.6
20200809073255 81 161 3.0 4.0 0.00 0.00 0.00 56 1019.5
20200809072951 80 167 2.0 4.0 0.00 0.00 0.00 60 1019.6
20200809072655 80 172 2.0 4.0 0.00 0.00 0.00 60 1019.5
20200809072351 80 162 4.0 4.0 0.00 0.00 0.00 61 1019.6
20200809072055 80 157 2.0 4.0 0.00 0.00 0.00 61 1019.5
20200809071751 80 159 2.0 4.0 0.00 0.00 0.00 61 1019.7
20200809071455 80 164 2.0 4.0 0.00 0.00 0.00 61 1019.7
20200809071152 79 168 3.0 5.0 0.00 0.00 0.00 61 1019.6
20200809070851 79 169 3.0 5.0 0.00 0.00 0.00 61 1019.7
20200809070555 79 168 3.0 5.0 0.00 0.00 0.00 61 1019.6
20200809070253 79 167 4.0 5.0 0.00 0.00 0.00 61 1019.7
20200809065954 79 169 4.0 4.0 0.00 0.00 0.00 61 1019.7
20200809065652 78 178 3.0 4.0 0.00 0.00 0.00 62 1019.6
20200809065354 78 174 2.0 4.0 0.00 0.00 0.00 62 1019.6
20200809065052 78 181 2.0 4.0 0.00 0.00 0.00 62 1019.6
20200809064751 78 174 3.0 4.0 0.00 0.00 0.00 63 1019.6
20200809064453 78 170 1.0 3.0 0.00 0.00 0.00 63 1019.6
20200809064150 78 167 2.0 3.0 0.00 0.00 0.00 64 1019.6
20200809063855 78 135 2.0 3.0 0.00 0.00 0.00 66 1019.6
20200809063551 78 49 0.0 2.0 0.00 0.00 0.00 67 1019.7
20200809063251 77 69 0.0 2.0 0.00 0.00 0.00 67 1019.6
20200809062954 77 85 1.0 3.0 0.00 0.00 0.00 68 1019.6
20200809062655 77 92 0.0 3.0 0.00 0.00 0.00 68 1019.6
20200809062352 77 97 0.0 3.0 0.00 0.00 0.00 67 1019.7
20200809062056 77 98 1.0 2.0 0.00 0.00 0.00 68 1019.6
20200809061754 76 103 1.0 2.0 0.00 0.00 0.00 69 1019.7
20200809061452 76 108 1.0 2.0 0.00 0.00 0.00 69 1019.6
20200809061152 76 102 1.0 2.0 0.00 0.00 0.00 69 1019.7
20200809060852 76 87 1.0 2.0 0.00 0.00 0.00 70 1019.6
20200809060556 75 78 0.0 2.0 0.00 0.00 0.00 70 1019.7
20200809060256 75 77 0.0 2.0 0.00 0.00 0.00 70 1019.8
20200809055953 75 87 0.0 4.0 0.00 0.00 0.00 70 1019.8
20200809055652 75 82 1.0 4.0 0.00 0.00 0.00 70 1019.8
20200809055351 75 84 2.0 4.0 0.00 0.00 0.00 70 1019.7
20200809055056 74 87 2.0 4.0 0.00 0.00 0.00 70 1019.8
20200809054754 74 90 1.0 2.0 0.00 0.00 0.00 71 1019.8
20200809054455 74 87 1.0 3.0 0.00 0.00 0.00 71 1019.6
20200809054154 74 88 1.0 3.0 0.00 0.00 0.00 71 1019.7
20200809053855 73 88 2.0 3.0 0.00 0.00 0.00 71 1019.7
20200809053554 73 81 1.0 3.0 0.00 0.00 0.00 72 1019.6
20200809053252 73 77 2.0 3.0 0.00 0.00 0.00 72 1019.7
20200809052951 72 74 2.0 2.0 0.00 0.00 0.00 72 1019.5
20200809052652 72 88 2.0 3.0 0.00 0.00 0.00 73 1019.6
20200809052351 72 93 1.0 3.0 0.00 0.00 0.00 73 1019.6
20200809052052 72 99 2.0 3.0 0.00 0.00 0.00 73 1019.6
20200809051754 72 100 2.0 4.0 0.00 0.00 0.00 73 1019.5
20200809051455 71 97 2.0 4.0 0.00 0.00 0.00 76 1019.4
20200809051151 71 94 1.0 4.0 0.00 0.00 0.00 76 1019.5
20200809050853 71 88 2.0 4.0 0.00 0.00 0.00 76 1019.5
20200809050552 71 84 2.0 4.0 0.00 0.00 0.00 77 1019.4
20200809050256 71 74 2.0 2.0 0.00 0.00 0.00 78 1019.4
20200809045953 71 66 2.0 2.0 0.00 0.00 0.00 79 1019.4
20200809045652 70 70 2.0 2.0 0.00 0.00 0.00 80 1019.5
20200809045355 70 87 2.0 2.0 0.00 0.00 0.00 81 1019.4
20200809045055 70 92 1.0 2.0 0.00 0.00 0.00 82 1019.5
20200809044750 70 92 1.0 2.0 0.00 0.00 0.00 83 1019.5
20200809044455 70 90 2.0 2.0 0.00 0.00 0.00 83 1019.5
20200809044151 69 90 2.0 2.0 0.00 0.00 0.00 84 1019.5
20200809043856 69 90 1.0 3.0 0.00 0.00 0.00 84 1019.4
20200809043550 69 77 1.0 3.0 0.00 0.00 0.00 84 1019.4
20200809043252 68 72 1.0 3.0 0.00 0.00 0.00 85 1019.4
20200809042955 68 66 2.0 3.0 0.00 0.00 0.00 86 1019.5
20200809042652 68 78 1.0 2.0 0.00 0.00 0.00 86 1019.5
20200809042352 67 86 0.0 2.0 0.00 0.00 0.00 86 1019.4
20200809042055 67 91 2.0 2.0 0.00 0.00 0.00 86 1019.4
20200809041754 67 92 1.0 2.0 0.00 0.00 0.00 86 1019.3
20200809041457 67 92 1.0 2.0 0.00 0.00 0.00 86 1019.3
20200809041152 67 92 2.0 2.0 0.00 0.00 0.00 86 1019.2
20200809040853 67 90 1.0 2.0 0.00 0.00 0.00 86 1019.4
20200809040552 66 90 2.0 2.0 0.00 0.00 0.00 86 1019.3
20200809040252 66 90 2.0 2.0 0.00 0.00 0.00 86 1019.2
20200809035955 66 90 2.0 2.0 0.00 0.00 0.00 86 1019.4
20200809035652 66 98 1.0 2.0 0.00 0.00 0.00 86 1019.4
20200809035352 66 104 2.0 2.0 0.00 0.00 0.00 85 1019.3
20200809035055 66 103 1.0 2.0 0.00 0.00 0.00 85 1019.4
20200809034752 66 97 1.0 2.0 0.00 0.00 0.00 86 1019.4
20200809034452 66 90 1.0 2.0 0.00 0.00 0.00 86 1019.2
20200809034152 66 90 1.0 2.0 0.00 0.00 0.00 86 1019.3
20200809033852 66 90 2.0 3.0 0.00 0.00 0.00 85 1019.2
20200809033552 66 90 2.0 3.0 0.00 0.00 0.00 85 1019.2
20200809033255 66 88 2.0 3.0 0.00 0.00 0.00 85 1019.3
20200809032955 66 88 2.0 2.0 0.00 0.00 0.00 85 1019.3
20200809032655 66 81 2.0 2.0 0.00 0.00 0.00 85 1019.2
20200809032352 66 71 1.0 2.0 0.00 0.00 0.00 85 1019.3
20200809032055 66 59 1.0 2.0 0.00 0.00 0.00 85 1019.4
20200809031752 66 58 1.0 2.0 0.00 0.00 0.00 85 1019.3
20200809031453 67 72 1.0 2.0 0.00 0.00 0.00 85 1019.3
20200809031152 67 76 2.0 2.0 0.00 0.00 0.00 84 1019.2
20200809030855 67 70 1.0 2.0 0.00 0.00 0.00 84 1019.3
20200809030553 67 52 2.0 2.0 0.00 0.00 0.00 84 1019.3
20200809030253 67 35 1.0 2.0 0.00 0.00 0.00 84 1019.3
20200809025954 67 29 1.0 2.0 0.00 0.00 0.00 84 1019.3
20200809025652 67 34 1.0 2.0 0.00 0.00 0.00 84 1019.3
20200809025351 67 33 0.0 2.0 0.00 0.00 0.00 84 1019.3
20200809025052 67 41 1.0 2.0 0.00 0.00 0.00 84 1019.3
20200809024754 67 42 1.0 2.0 0.00 0.00 0.00 84 1019.2
20200809024457 67 53 1.0 2.0 0.00 0.00 0.00 84 1019.3
20200809024152 67 65 0.0 2.0 0.00 0.00 0.00 84 1019.3
20200809023855 67 72 1.0 3.0 0.00 0.00 0.00 84 1019.2
20200809023551 67 67 2.0 3.0 0.00 0.00 0.00 84 1019.1
20200809023252 67 65 2.0 3.0 0.00 0.00 0.00 84 1019.2
20200809022951 67 60 2.0 3.0 0.00 0.00 0.00 84 1019.2
20200809022656 67 44 2.0 3.0 0.00 0.00 0.00 84 1019.2
20200809022354 67 38 2.0 3.0 0.00 0.00 0.00 84 1019.2
20200809022053 67 35 2.0 3.0 0.00 0.00 0.00 84 1019.1
20200809021754 67 42 2.0 3.0 0.00 0.00 0.00 83 1019.1
20200809021453 67 52 2.0 3.0 0.00 0.00 0.00 83 1019.2
20200809021151 67 52 1.0 2.0 0.00 0.00 0.00 83 1019.2
20200809020852 67 51 2.0 2.0 0.00 0.00 0.00 83 1019.1
20200809020558 67 57 2.0 2.0 0.00 0.00 0.00 83 1019.2
20200809020253 67 71 2.0 2.0 0.00 0.00 0.00 83 1019.1
20200809015955 67 84 2.0 2.0 0.00 0.00 0.00 83 1019.1
20200809015652 67 90 2.0 3.0 0.00 0.00 0.00 83 1019.1
20200809015351 67 88 2.0 3.0 0.00 0.00 0.00 83 1019.2
20200809015056 67 85 1.0 3.0 0.00 0.00 0.00 83 1019.2
20200809014754 67 85 2.0 3.0 0.00 0.00 0.00 83 1019.1
20200809014452 67 74 2.0 3.0 0.00 0.00 0.00 83 1019.1
20200809014151 67 74 2.0 3.0 0.00 0.00 0.00 83 1019.3
20200809013856 67 53 2.0 2.0 0.00 0.00 0.00 83 1019.2
20200809013551 67 42 1.0 2.0 0.00 0.00 0.00 83 1019.1
20200809013255 67 41 1.0 2.0 0.00 0.00 0.00 83 1019.3
20200809012955 67 39 2.0 2.0 0.00 0.00 0.00 83 1019.1
20200809012653 67 30 2.0 2.0 0.00 0.00 0.00 83 1019.3
20200809012355 67 33 2.0 2.0 0.00 0.00 0.00 83 1019.2
20200809012052 67 44 0.0 1.0 0.00 0.00 0.00 83 1019.2
20200809011751 67 73 0.0 2.0 0.00 0.00 0.00 83 1019.2
20200809011456 67 87 0.0 2.0 0.00 0.00 0.00 82 1019.2
20200809011151 67 90 1.0 2.0 0.00 0.00 0.00 82 1019.2
20200809010855 67 90 1.0 2.0 0.00 0.00 0.00 82 1019.2
20200809010554 68 90 0.0 2.0 0.00 0.00 0.00 82 1019.2
20200809010255 68 84 0.0 2.0 0.00 0.00 0.00 82 1019.2
20200809005954 68 79 1.0 2.0 0.00 0.00 0.00 82 1019.3
20200809005654 68 63 1.0 2.0 0.00 0.00 0.00 82 1019.2
20200809005351 68 47 1.0 1.0 0.00 0.00 0.00 82 1019.2
20200809005052 68 70 0.0 2.0 0.00 0.00 0.00 82 1019.2
20200809004752 68 79 0.0 2.0 0.00 0.00 0.00 82 1019.3
20200809004456 68 89 0.0 2.0 0.00 0.00 0.00 82 1019.2
20200809004154 68 90 1.0 2.0 0.00 0.00 0.00 81 1019.2
20200809003852 68 90 1.0 2.0 0.00 0.00 0.00 81 1019.2
20200809003552 68 83 1.0 2.0 0.00 0.00 0.00 82 1019.3
20200809003253 68 75 1.0 2.0 0.00 0.00 0.00 82 1019.2
20200809002955 68 67 1.0 2.0 0.00 0.00 0.00 82 1019.2
20200809002652 68 75 1.0 2.0 0.00 0.00 0.00 82 1019.2
20200809002354 68 83 0.0 2.0 0.00 0.00 0.00 82 1019.2
20200809002053 69 85 1.0 2.0 0.00 0.00 0.00 82 1019.2
20200809001754 69 84 2.0 3.0 0.00 0.00 0.00 82 1019.2
20200809001455 69 84 2.0 3.0 0.00 0.00 0.00 82 1019.3
20200809001154 69 85 1.0 3.0 0.00 0.00 0.00 81 1019.2
20200809000853 69 90 2.0 3.0 0.00 0.00 0.00 81 1019.2
20200809000551 69 90 1.0 2.0 0.00 0.00 0.00 81 1019.2
20200809000255 69 88 1.0 2.0 0.00 0.00 0.00 81 1019.4
20200808235954 69 82 1.0 2.0 0.00 0.00 0.00 81 1019.3
20200808235652 69 69 1.0 2.0 0.00 0.00 0.00 81 1019.3
20200808235351 69 54 2.0 2.0 0.00 0.00 0.00 81 1019.4
20200808235056 69 45 1.0 2.0 0.00 0.00 0.00 81 1019.4
20200808234754 69 45 1.0 2.0 0.00 0.00 0.00 81 1019.3
20200808234455 69 45 1.0 2.0 0.00 0.00 0.00 81 1019.5
20200808234151 69 45 0.0 2.0 0.00 0.00 0.00 81 1019.6
20200808233852 69 35 0.0 2.0 0.00 0.00 0.00 81 1019.4
20200808233554 69 22 0.0 2.0 0.00 0.00 0.00 81 1019.5
20200808233256 69 3 0.0 2.0 0.00 0.00 0.00 81 1019.5
20200808232952 69 1 0.0 2.0 0.00 0.00 0.00 81 1019.5
20200808232652 69 10 0.0 2.0 0.00 0.00 0.00 81 1019.5
20200808232351 69 19 1.0 2.0 0.00 0.00 0.00 80 1019.4
20200808232053 69 47 0.0 2.0 0.00 0.00 0.00 80 1019.4
20200808231751 69 67 0.0 2.0 0.00 0.00 0.00 80 1019.5
20200808231453 69 68 0.0 2.0 0.00 0.00 0.00 80 1019.5
20200808231155 70 70 1.0 2.0 0.00 0.00 0.00 80 1019.5
20200808230855 70 58 1.0 2.0 0.00 0.00 0.00 80 1019.5
20200808230554 70 31 1.0 2.0 0.00 0.00 0.00 80 1019.5
20200808230256 70 10 0.0 2.0 0.00 0.00 0.00 80 1019.5
20200808225955 70 2 1.0 2.0 0.00 0.00 0.00 80 1019.4
20200808225653 70 14 1.0 2.0 0.00 0.00 0.00 80 1019.4
20200808225351 70 31 0.0 2.0 0.00 0.00 0.00 79 1019.5
20200808225056 70 45 0.0 2.0 0.00 0.00 0.00 79 1019.4
20200808224752 70 63 0.0 2.0 0.00 0.00 0.00 79 1019.5
20200808224455 70 76 1.0 2.0 0.00 0.00 0.00 79 1019.5
20200808224155 70 87 1.0 2.0 0.00 0.00 0.00 79 1019.4
20200808223853 70 90 1.0 3.0 0.00 0.00 0.00 79 1019.5
20200808223555 70 90 1.0 3.0 0.00 0.00 0.00 79 1019.4
20200808223253 70 90 2.0 3.0 0.00 0.00 0.00 79 1019.4
20200808222951 71 90 2.0 3.0 0.00 0.00 0.00 79 1019.5
20200808222653 71 90 2.0 3.0 0.00 0.00 0.00 79 1019.4
20200808222355 71 90 2.0 2.0 0.00 0.00 0.00 79 1019.5
20200808222055 71 90 1.0 2.0 0.00 0.00 0.00 78 1019.5
20200808221754 71 86 1.0 2.0 0.00 0.00 0.00 78 1019.6
20200808221456 71 76 1.0 2.0 0.00 0.00 0.00 78 1019.6
20200808221155 71 63 1.0 2.0 0.00 0.00 0.00 78 1019.5
20200808220856 71 52 2.0 2.0 0.00 0.00 0.00 78 1019.4
20200808220552 71 63 1.0 2.0 0.00 0.00 0.00 78 1019.5
20200808220256 71 62 1.0 2.0 0.00 0.00 0.00 78 1019.6
20200808215956 71 67 1.0 2.0 0.00 0.00 0.00 78 1019.4
20200808215652 71 65 2.0 2.0 0.00 0.00 0.00 78 1019.5
20200808215351 71 63 2.0 3.0 0.00 0.00 0.00 78 1019.5
20200808215055 71 55 1.0 3.0 0.00 0.00 0.00 78 1019.6
20200808214752 71 43 0.0 3.0 0.00 0.00 0.00 78 1019.6
20200808214455 71 36 2.0 3.0 0.00 0.00 0.00 77 1019.5
20200808214152 71 18 2.0 2.0 0.00 0.00 0.00 77 1019.6
20200808213854 72 1 1.0 1.0 0.00 0.00 0.00 74 1019.7
20200808213554 72 19 0.0 2.0 0.00 0.00 0.00 73 1019.7
20200808213256 72 31 0.0 2.0 0.00 0.00 0.00 73 1019.6
20200808212954 72 42 0.0 2.0 0.00 0.00 0.00 73 1019.7
20200808212653 72 45 1.0 2.0 0.00 0.00 0.00 73 1019.7
20200808212355 72 45 0.0 2.0 0.00 0.00 0.00 73 1019.6
20200808212052 72 45 0.0 2.0 0.00 0.00 0.00 73 1019.6
20200808211751 72 55 1.0 2.0 0.00 0.00 0.00 73 1019.6
20200808211453 72 59 1.0 2.0 0.00 0.00 0.00 73 1019.6
20200808211154 72 65 1.0 2.0 0.00 0.00 0.00 73 1019.6
20200808210852 72 59 1.0 2.0 0.00 0.00 0.00 73 1019.6
20200808210555 72 53 2.0 2.0 0.00 0.00 0.00 73 1019.5
20200808210253 72 49 1.0 2.0 0.00 0.00 0.00 73 1019.7
20200808205952 72 45 1.0 2.0 0.00 0.00 0.00 72 1019.7
20200808205652 72 46 1.0 2.0 0.00 0.00 0.00 72 1019.7
20200808205351 72 45 1.0 2.0 0.00 0.00 0.00 72 1019.6
20200808205053 73 45 0.0 2.0 0.00 0.00 0.00 72 1019.7
20200808204755 73 45 0.0 2.0 0.00 0.00 0.00 72 1019.6
20200808204453 73 41 0.0 1.0 0.00 0.00 0.00 71 1019.6
20200808204152 73 26 0.0 1.0 0.00 0.00 0.00 71 1019.5
20200808203856 73 15 0.0 1.0 0.00 0.00 0.00 71 1019.7
20200808203551 73 1 0.0 1.0 0.00 0.00 0.00 71 1019.6
20200808203255 73 6 0.0 1.0 0.00 0.00 0.00 71 1019.5
20200808202952 73 55 1.0 1.0 0.00 0.00 0.00 71 1019.6
20200808202653 74 90 0.0 2.0 0.00 0.00 0.00 71 1019.6
20200808202356 74 90 0.0 2.0 0.00 0.00 0.00 71 1019.6
20200808202053 74 90 0.0 2.0 0.00 0.00 0.00 71 1019.6
20200808201751 74 90 1.0 2.0 0.00 0.00 0.00 71 1019.7
20200808201453 74 90 1.0 2.0 0.00 0.00 0.00 70 1019.6
20200808201153 74 90 1.0 2.0 0.00 0.00 0.00 70 1019.8
20200808200856 74 90 1.0 2.0 0.00 0.00 0.00 70 1019.6
20200808200554 74 90 2.0 2.0 0.00 0.00 0.00 70 1019.7
20200808200256 74 90 2.0 2.0 0.00 0.00 0.00 70 1019.7
20200808195952 74 90 2.0 2.0 0.00 0.00 0.00 70 1019.6
20200808195653 74 79 2.0 2.0 0.00 0.00 0.00 70 1019.8
20200808195355 75 77 2.0 2.0 0.00 0.00 0.00 70 1019.7
20200808195053 75 77 1.0 2.0 0.00 0.00 0.00 69 1019.8
20200808194756 75 84 1.0 2.0 0.00 0.00 0.00 69 1019.7
20200808194454 75 90 1.0 2.0 0.00 0.00 0.00 68 1019.8
20200808194151 75 90 1.0 2.0 0.00 0.00 0.00 68 1019.7
20200808193853 76 90 0.0 1.0 0.00 0.00 0.00 67 1019.7
20200808193555 76 1 0.0 1.0 0.00 0.00 0.00 66 1019.7
20200808193254 76 53 0.0 1.0 0.00 0.00 0.00 66 1019.8
20200808192951 76 73 0.0 1.0 0.00 0.00 0.00 66 1019.6
20200808192653 76 88 0.0 2.0 0.00 0.00 0.00 66 1019.8
20200808192351 76 90 0.0 2.0 0.00 0.00 0.00 66 1019.8
20200808192055 76 90 1.0 2.0 0.00 0.00 0.00 65 1019.8
20200808191753 77 90 0.0 2.0 0.00 0.00 0.00 64 1019.8
20200808191458 77 90 1.0 2.0 0.00 0.00 0.00 64 1019.7
20200808191154 77 90 1.0 2.0 0.00 0.00 0.00 64 1019.6
20200808190856 77 90 1.0 2.0 0.00 0.00 0.00 64 1019.7
20200808190551 77 92 1.0 2.0 0.00 0.00 0.00 63 1019.8
20200808190257 77 92 1.0 2.0 0.00 0.00 0.00 63 1019.7
20200808185954 78 92 1.0 2.0 0.00 0.00 0.00 62 1019.7
20200808185653 78 92 1.0 2.0 0.00 0.00 0.00 62 1019.6
20200808185351 78 94 2.0 2.0 0.00 0.00 0.00 62 1019.7
20200808185053 78 94 1.0 2.0 0.00 0.00 0.00 62 1019.6
20200808184751 78 97 1.0 2.0 0.00 0.00 0.00 61 1019.6
20200808184452 78 94 1.0 2.0 0.00 0.00 0.00 61 1019.5
20200808184152 79 92 1.0 2.0 0.00 0.00 0.00 61 1019.6
20200808183853 79 90 1.0 2.0 0.00 0.00 0.00 61 1019.5
20200808183553 79 92 1.0 2.0 0.00 0.00 0.00 60 1019.5
20200808183253 80 92 2.0 2.0 0.00 0.00 0.00 60 1019.5
20200808182953 80 93 1.0 2.0 0.00 0.00 0.00 60 1019.5
20200808182653 80 91 1.0 2.0 0.00 0.00 0.00 60 1019.5
20200808182354 80 90 0.0 2.0 0.00 0.00 0.00 59 1019.6
20200808182055 81 88 1.0 2.0 0.00 0.00 0.00 54 1019.6
20200808181755 81 88 1.0 2.0 0.00 0.00 0.00 54 1019.5
20200808181457 81 89 2.0 4.0 0.00 0.00 0.00 53 1019.5
20200808181155 81 89 1.0 4.0 0.00 0.00 0.00 53 1019.5
20200808180855 82 90 2.0 4.0 0.00 0.00 0.00 52 1019.5
20200808180551 82 90 3.0 4.0 0.00 0.00 0.00 52 1019.5
20200808180257 82 91 3.0 4.0 0.00 0.00 0.00 52 1019.4
20200808175952 82 91 3.0 4.0 0.00 0.00 0.00 52 1019.4
20200808175653 82 91 2.0 3.0 0.00 0.00 0.00 52 1019.5
20200808175355 82 85 2.0 4.0 0.00 0.00 0.00 51 1019.5
20200808175053 83 86 2.0 4.0 0.00 0.00 0.00 51 1019.4
20200808174752 83 82 2.0 4.0 0.00 0.00 0.00 51 1019.4
20200808174453 83 88 2.0 5.0 0.00 0.00 0.00 51 1019.4
20200808174152 83 95 2.0 5.0 0.00 0.00 0.00 51 1019.4
20200808173853 83 100 2.0 5.0 0.00 0.00 0.00 50 1019.4
20200808173553 83 107 4.0 5.0 0.00 0.00 0.00 50 1019.4
20200808173255 83 108 2.0 7.0 0.00 0.00 0.00 50 1019.4
20200808172951 83 115 3.0 7.0 0.00 0.00 0.00 50 1019.3
20200808172656 83 117 4.0 7.0 0.00 0.00 0.00 50 1019.4
20200808172352 83 117 3.0 7.0 0.00 0.00 0.00 50 1019.4
20200808172053 84 112 4.0 5.0 0.00 0.00 0.00 50 1019.4
20200808171755 84 110 4.0 7.0 0.00 0.00 0.00 50 1019.3
20200808171507 84 111 4.0 7.0 0.00 0.00 0.00 49 1019.4
20200808171152 84 108 4.0 7.0 0.00 0.00 0.00 48 1019.4
20200808170856 85 100 3.0 7.0 0.00 0.00 0.00 48 1019.5
20200808170552 85 104 3.0 7.0 0.00 0.00 0.00 47 1019.4
20200808170259 85 107 5.0 8.0 0.00 0.00 0.00 46 1019.4
20200808165955 85 110 5.0 8.0 0.00 0.00 0.00 46 1019.4
20200808165653 85 100 4.0 9.0 0.00 0.00 0.00 46 1019.5
20200808165356 85 95 5.0 9.0 0.00 0.00 0.00 46 1019.4
20200808165057 85 91 4.0 9.0 0.00 0.00 0.00 45 1019.4
20200808164753 85 89 7.0 9.0 0.00 0.00 0.00 44 1019.4
20200808164453 85 91 4.0 10.0 0.00 0.00 0.00 44 1019.4
20200808164155 85 90 4.0 10.0 0.00 0.00 0.00 44 1019.4
20200808163857 86 89 7.0 11.0 0.00 0.00 0.00 44 1019.4
20200808163552 86 68 4.0 11.0 0.00 0.00 0.00 45 1019.3
20200808163256 86 53 3.0 11.0 0.00 0.00 0.00 45 1019.4
20200808162953 86 58 6.0 11.0 0.00 0.00 0.00 44 1019.5
20200808162656 86 59 8.0 11.0 0.00 0.00 0.00 43 1019.4
20200808162355 86 72 8.0 11.0 0.00 0.00 0.00 43 1019.4
20200808162053 86 76 5.0 11.0 0.00 0.00 0.00 43 1019.2
20200808161756 86 68 6.0 11.0 0.00 0.00 0.00 43 1019.4
20200808161453 86 57 3.0 6.0 0.00 0.00 0.00 42 1019.3
20200808161152 86 55 4.0 6.0 0.00 0.00 0.00 42 1019.5
20200808160852 86 44 2.0 4.0 0.00 0.00 0.00 42 1019.4
20200808160552 86 29 2.0 4.0 0.00 0.00 0.00 41 1019.6
20200808160256 86 27 2.0 4.0 0.00 0.00 0.00 41 1019.4
20200808160003 86 42 2.0 4.0 0.00 0.00 0.00 41 1019.5
20200808155656 87 62 4.0 4.0 0.00 0.00 0.00 42 1019.5
20200808155354 87 93 1.0 5.0 0.00 0.00 0.00 43 1019.5
20200808155054 87 95 3.0 7.0 0.00 0.00 0.00 42 1019.6
20200808154752 87 102 2.0 7.0 0.00 0.00 0.00 42 1019.6
20200808154453 87 108 4.0 7.0 0.00 0.00 0.00 41 1019.6
20200808154152 87 108 5.0 7.0 0.00 0.00 0.00 41 1019.6
20200808153855 87 90 2.0 4.0 0.00 0.00 0.00 42 1019.7
20200808153553 88 86 2.0 4.0 0.00 0.00 0.00 42 1019.6
20200808153252 88 86 2.0 6.0 0.00 0.00 0.00 41 1019.7
20200808152952 88 101 3.0 7.0 0.00 0.00 0.00 41 1019.7
20200808152656 88 102 3.0 7.0 0.00 0.00 0.00 41 1019.6
20200808152357 88 103 3.0 7.0 0.00 0.00 0.00 41 1019.7
20200808152054 89 90 3.0 7.0 0.00 0.00 0.00 40 1019.8
20200808151752 89 68 5.0 7.0 0.00 0.00 0.00 39 1019.8
20200808151454 89 57 4.0 6.0 0.00 0.00 0.00 39 1019.6
20200808151154 90 76 3.0 8.0 0.00 0.00 0.00 33 1019.6
20200808150853 91 91 3.0 8.0 0.00 0.00 0.00 33 1019.7
20200808150555 91 98 2.0 8.0 0.00 0.00 0.00 32 1019.7
20200808150253 92 86 7.0 8.0 0.00 0.00 0.00 32 1019.6
20200808145952 91 78 4.0 6.0 0.00 0.00 0.00 35 1019.7
20200808145653 90 68 2.0 6.0 0.00 0.00 0.00 35 1019.7
20200808145357 90 73 3.0 6.0 0.00 0.00 0.00 35 1019.7
20200808145056 90 69 4.0 6.0 0.00 0.00 0.00 34 1019.8
20200808144751 90 56 4.0 6.0 0.00 0.00 0.00 34 1019.8
20200808144456 90 51 2.0 4.0 0.00 0.00 0.00 35 1019.8
20200808144153 90 78 2.0 6.0 0.00 0.00 0.00 34 1019.8
20200808143856 90 77 4.0 6.0 0.00 0.00 0.00 34 1019.8
20200808143555 90 77 3.0 6.0 0.00 0.00 0.00 35 1019.9
20200808143256 90 71 4.0 6.0 0.00 0.00 0.00 34 1019.7
20200808142952 90 71 4.0 6.0 0.00 0.00 0.00 34 1019.9
20200808142653 90 73 1.0 5.0 0.00 0.00 0.00 36 1019.9
20200808142352 90 67 2.0 6.0 0.00 0.00 0.00 37 1019.8